TimeHST,TemperatureF,Dew PointF,Humidity,Sea Level PressureIn,VisibilityMPH,Wind Direction,Wind SpeedMPH,Gust SpeedMPH,PrecipitationIn,Events,Conditions,WindDirDegrees,DateUTC
12:53 AM,69.1,64.0,84,29.96,10.0,SW,8.1,-,N/A,,Scattered Clouds,230,2012-11-05 10:53:00
1:53 AM,68.0,62.1,81,29.96,10.0,SW,8.1,-,N/A,,Clear,230,2012-11-05 11:53:00
2:53 AM,66.9,60.1,79,29.95,10.0,WSW,8.1,-,N/A,,Clear,240,2012-11-05 12:53:00
3:14 AM,66.2,59.0,78,29.95,10.0,WSW,8.1,-,N/A,,Mostly Cloudy,240,2012-11-05 13:14:00
3:53 AM,66.9,57.0,70,29.95,10.0,WSW,8.1,-,N/A,,Overcast,240,2012-11-05 13:53:00
4:53 AM,66.9,57.0,70,29.94,10.0,SW,6.9,-,N/A,,Overcast,230,2012-11-05 14:53:00
5:53 AM,68.0,55.9,65,29.96,10.0,West,3.5,-,N/A,,Overcast,260,2012-11-05 15:53:00
6:01 AM,68.0,57.2,68,29.96,10.0,WSW,5.8,-,0.00,Rain,Light Rain,240,2012-11-05 16:01:00
6:53 AM,69.1,57.9,68,29.98,10.0,SW,4.6,-,0.00,,Overcast,220,2012-11-05 16:53:00
7:53 AM,72.0,61.0,68,29.98,10.0,WSW,4.6,-,0.00,,Overcast,240,2012-11-05 17:53:00
8:53 AM,75.9,64.0,67,29.99,10.0,Calm,Calm,-,N/A,,Mostly Cloudy,0,2012-11-05 18:53:00
9:53 AM,81.0,66.9,62,29.99,10.0,Variable,3.5,-,N/A,,Mostly Cloudy,0,2012-11-05 19:53:00
10:53 AM,84.0,66.9,56,29.97,10.0,NE,9.2,-,N/A,,Mostly Cloudy,50,2012-11-05 20:53:00
11:53 AM,77.0,70.0,79,29.96,10.0,East,10.4,-,0.00,Rain,Light Rain,80,2012-11-05 21:53:00
12:53 PM,78.1,70.0,76,29.93,10.0,East,3.5,-,0.00,,Overcast,90,2012-11-05 22:53:00
1:05 PM,78.8,69.8,74,29.93,2.0,NE,5.8,-,0.00,Rain,Light Rain,40,2012-11-05 23:05:00
1:09 PM,75.2,71.6,89,29.93,4.0,NE,4.6,-,0.00,Rain,Light Rain,40,2012-11-05 23:09:00
1:17 PM,75.2,71.6,89,29.93,2.0,ESE,9.2,-,0.00,Rain,Light Rain,110,2012-11-05 23:17:00
1:40 PM,73.4,71.6,94,29.91,2.0,East,10.4,-,0.02,Rain,Light Rain,100,2012-11-05 23:40:00
1:49 PM,73.4,71.6,94,29.91,2.0,East,11.5,-,0.03,Rain,Light Rain,100,2012-11-05 23:49:00
1:53 PM,73.9,71.1,91,29.91,2.0,ESE,13.8,-,0.04,Rain,Light Rain,110,2012-11-05 23:53:00
2:00 PM,73.4,71.6,94,29.91,1.8,East,8.1,-,0.01,Rain,Light Rain,100,2012-11-06 00:00:00
2:07 PM,73.4,71.6,94,29.90,2.0,ESE,9.2,-,0.01,Rain,Light Rain,110,2012-11-06 00:07:00
2:46 PM,73.4,71.6,94,29.90,3.0,East,6.9,-,0.03,Rain,Light Rain,100,2012-11-06 00:46:00
2:53 PM,73.9,71.1,91,29.90,4.0,ESE,5.8,-,0.03,Rain,Light Rain,110,2012-11-06 00:53:00
3:08 PM,73.4,71.6,94,29.90,3.0,Calm,Calm,-,0.01,Rain,Light Rain,0,2012-11-06 01:08:00
3:22 PM,73.4,69.8,88,29.90,3.0,Calm,Calm,-,0.01,Rain,Light Rain,0,2012-11-06 01:22:00
3:35 PM,73.4,71.6,94,29.90,2.5,Calm,Calm,-,0.02,Rain,Light Rain,0,2012-11-06 01:35:00
3:53 PM,73.0,70.0,90,29.90,2.5,West,5.8,-,0.03,Rain,Light Rain,260,2012-11-06 01:53:00
4:00 PM,73.4,71.6,94,29.91,3.0,West,4.6,-,0.01,Rain,Light Rain,270,2012-11-06 02:00:00
4:17 PM,73.4,69.8,88,29.91,7.0,West,6.9,-,0.01,,Overcast,270,2012-11-06 02:17:00
4:28 PM,73.4,71.6,94,29.91,5.0,West,10.4,-,0.01,Rain,Light Rain,270,2012-11-06 02:28:00
4:53 PM,73.0,70.0,90,29.91,10.0,West,8.1,-,0.01,,Overcast,270,2012-11-06 02:53:00
5:44 PM,73.4,69.8,88,29.93,4.0,Calm,Calm,-,0.00,Rain,Light Rain,0,2012-11-06 03:44:00
5:53 PM,73.0,69.1,87,29.93,3.0,SSE,4.6,-,0.00,Rain,Light Rain,150,2012-11-06 03:53:00
6:42 PM,71.6,69.8,94,29.95,3.0,West,3.5,-,0.04,Rain,Light Rain,280,2012-11-06 04:42:00
6:53 PM,71.1,69.1,93,29.95,2.5,Calm,Calm,-,0.05,Rain,Rain,0,2012-11-06 04:53:00
7:40 PM,71.6,69.8,94,29.97,3.0,WSW,3.5,-,0.16,Rain,Light Rain,240,2012-11-06 05:40:00
7:49 PM,71.6,69.8,94,29.97,2.5,WSW,4.6,-,0.19,Rain,Rain,250,2012-11-06 05:49:00
7:53 PM,71.1,69.1,93,29.97,2.5,WSW,4.6,-,0.20,Rain,Rain,250,2012-11-06 05:53:00
8:04 PM,71.6,69.8,94,29.98,4.0,West,5.8,-,0.02,Rain,Light Rain,260,2012-11-06 06:04:00
8:11 PM,71.6,69.8,94,29.97,7.0,West,6.9,-,0.03,Rain,Light Rain,260,2012-11-06 06:11:00
8:20 PM,71.6,69.8,94,29.97,10.0,West,6.9,-,0.03,Rain,Light Rain,270,2012-11-06 06:20:00
8:49 PM,71.6,69.8,94,29.98,2.0,West,4.6,-,0.08,Rain,Heavy Rain,270,2012-11-06 06:49:00
8:53 PM,71.1,70.0,96,29.98,2.0,West,4.6,-,0.12,Rain,Heavy Rain,260,2012-11-06 06:53:00
9:09 PM,71.6,69.8,94,29.99,3.0,West,4.6,-,0.06,Rain,Rain,280,2012-11-06 07:09:00
9:53 PM,71.1,69.1,93,29.99,5.0,West,4.6,-,0.09,Rain,Light Rain,270,2012-11-06 07:53:00
10:53 PM,72.0,70.0,93,29.98,10.0,Variable,3.5,-,0.03,Rain,Light Rain,0,2012-11-06 08:53:00
11:53 PM,71.1,69.1,93,29.97,10.0,West,5.8,-,0.01,,Overcast,260,2012-11-06 09:53:00